Torna al catalogo

STARLINK-31064

AttivoComunicazioniVLEO
NORAD 58631·PAYLOAD·🇺🇸 United States

Lanciato Dec 23, 2023 da Cape Canaveral Space Force Station

Loading…

Prossimi Passaggi (prossime 24 ore)

TLE

AggiornatoSource: CelesTrak SupGP

Epoca: Sep 14, 2026, 22:25 UTC

1 58631C 23203P   26257.93451389  .00060059  00000+0  21767-2 0  2578
2 58631  43.0028  82.1347 0001374 274.1354 306.0014 15.27528390    15

Traccia STARLINK-31064 in tempo reale con AllMySat

Download on the App Store